DateTime,Index
2000072212,0.0
2000072218,0.0
2000072300,0.0
2000072306,0.0
2000072312,0.0
2000072318,1225.0
2000072400,2025.0
2000072406,3025.0
2000072412,4225.0
2000072418,5625.0
2000072500,9025.0
2000072506,10000.0
2000072512,11025.0
2000072518,12100.0
2000072600,12100.0
2000072606,11025.0
2000072612,11025.0
2000072618,11025.0
2000072700,10000.0
2000072706,9025.0
2000072712,8100.0
2000072718,9025.0
2000072800,9025.0
2000072806,11025.0
2000072812,10000.0
2000072818,8100.0
2000072900,6400.0
2000072906,4225.0
2000072912,4225.0
2000072918,4225.0
2000073000,3600.0
2000073006,3025.0
2000073012,2500.0
2000073018,2500.0
2000073100,3025.0
2000073106,2500.0
2000073112,2025.0
2000073118,3600.0
2000080100,3600.0
2000080106,2500.0
2000080112,2025.0
2000080118,2025.0
2000080200,1600.0
2000080206,2025.0
2000080212,2025.0
2000080218,2025.0
2000080300,1600.0
2000080306,1225.0
2000080312,0.0
2000080318,0.0
2000080400,0.0
2000080406,0.0
2000080412,0.0
2000080418,0.0
2000080500,0.0
2000080506,0.0
